Location: Mentone
(34.5413°N, 85.5351°W)
Time: 23:41:25
(UTC-06:00)

Amateur Radio Satellites - All Passes

Search period start: 11 February 2016 23:11
Search period end: 12 February 2016 23:11
Location: Mentone, 34.5413°N, 85.5351°W

Satellite Date Start Highest point End Downlink Frequencies (MHz)
Time Altitude Azimuth
RS-15 11 Feb 23:13:10 23:16:33 11° 265° (W) 23:19:57 29.354- 29.394
BUGSAT 1 11 Feb 23:21:41 23:25:39 58° 101° (ESE) 23:29:35 437.445
POLYITAN 1 11 Feb 23:31:34 23:35:34 44° 286° (WNW) 23:39:34 437.675
QB50P2 11 Feb 23:32:08 23:36:07 42° 286° (WNW) 23:40:05 145.880/145.840
VELOX 1 11 Feb 23:33:24 23:36:17 17° 266° (W) 23:39:09 145.980
UKube-1 11 Feb 23:53:13 23:53:58 10° 268° (W) 23:54:43 .
TISAT 1 11 Feb 23:55:12 23:59:25 89° 97° (E) 00:03:40 437.305
SPROUT 11 Feb 23:55:18 23:59:06 31° 262° (W) 00:02:55 437.525
PHONESAT 2.4 12 Feb 00:00:55 00:04:09 56° 341° (NNW) 00:07:24 2401.200-2431.200
CUSAT 1 12 Feb 00:01:20 00:08:05 32° 88° (E) 00:14:58 437.405
ITUPSAT 1 12 Feb 00:01:28 00:04:31 17° 66° (ENE) 00:07:35 437.325
POPSAT HIP 1 12 Feb 00:02:01 00:05:09 21° 291° (WNW) 00:08:17 437.405
Oscar 19 12 Feb 00:04:04 00:07:17 17° 94° (E) 00:10:30 437.125/150
NANOSAT C BR1 12 Feb 00:05:24 00:08:24 19° 291° (WNW) 00:11:24 145.865
DUCHIFAT 1 12 Feb 00:05:46 00:08:49 20° 291° (WNW) 00:11:52 145.980
BEESAT 12 Feb 00:07:58 00:11:26 20° 68° (ENE) 00:14:54 436.000
QB50P1 12 Feb 00:15:06 00:17:29 15° 292° (WNW) 00:19:51 145.935-145.965
JAS-2 12 Feb 00:27:49 00:31:41 20° 93° (E) 00:35:24 435.910
DANDE 12 Feb 00:52:38 00:59:50 46° 90° (E) 01:07:46 436.750
Gurwin Techsat 1B 12 Feb 00:52:47 00:56:31 19° 94° (E) 01:00:12 435.225
SWISSCUBE 12 Feb 00:59:05 01:03:50 82° 77° (ENE) 01:08:38 437.505
Cosmos 2491 12 Feb 01:05:38 01:13:51 42° 77° (ENE) 01:22:02 435.465 / 435.565
BEESAT 3 12 Feb 01:09:46 01:13:39 55° 59° (ENE) 01:17:30 437.485
KKS-1 12 Feb 01:12:48 01:14:26 12° 65° (ENE) 01:16:04 437.445
ITAMSAT 1 12 Feb 01:17:55 01:21:08 16° 94° (E) 01:24:19 435.822/435.867
ITUPSAT 1 12 Feb 01:37:28 01:41:59 42° 261° (W) 01:46:32 437.325
BEESAT 2 12 Feb 01:38:06 01:42:05 74° 61° (ENE) 01:46:01 435.950
PHONESAT 2.4 12 Feb 01:38:54 01:41:47 27° 357° (N) 01:44:39 2401.200-2431.200
Oscar 19 12 Feb 01:41:54 01:46:48 47° 288° (WNW) 01:51:40 437.125/150
CUSAT 1 12 Feb 01:42:21 01:50:01 51° 283° (WNW) 01:57:48 437.405
BEESAT 12 Feb 01:44:37 01:48:56 35° 262° (W) 01:53:18 436.000
YUBILEINY 12 Feb 01:50:06 01:58:01 40° 87° (E) 02:06:00 435.215
JAS-2 12 Feb 02:11:56 02:16:59 38° 290° (WNW) 02:21:46 435.910
AIST 2 12 Feb 02:14:30 02:17:20 18° 51° (NE) 02:20:09 435.215
STARS 12 Feb 02:23:04 02:27:09 39° 73° (ENE) 02:31:15 437.465
Gurwin Techsat 1B 12 Feb 02:31:34 02:36:37 44° 288° (WNW) 02:41:37 435.225
DANDE 12 Feb 02:35:48 02:42:52 37° 287° (WNW) 02:50:33 436.750
KKS-1 12 Feb 02:46:07 02:50:29 55° 259° (W) 02:54:53 437.445
ITAMSAT 1 12 Feb 02:55:46 03:00:49 50° 288° (WNW) 03:05:51 435.822/435.867
MOZHAYETS 4 12 Feb 02:56:36 03:01:06 66° 75° (ENE) 03:05:39
Cosmos 2491 12 Feb 03:02:43 03:10:25 36° 274° (W) 03:18:09 435.465 / 435.565
AO-7 12 Feb 03:09:26 03:17:31 52° 102° (ESE) 03:25:30 29.400- 29.500
PHONESAT 2.4 12 Feb 03:16:23 03:19:30 39° 14° (NNE) 03:22:35 2401.200-2431.200
M-CUBED/EXP-1 PRIME 12 Feb 03:33:40 03:36:47 29° 104° (ESE) 03:40:04 437.505
AUBIESAT-1 12 Feb 03:41:16 03:44:26 30° 104° (ESE) 03:47:48 437.475
CUBESAT XI-V 12 Feb 03:45:06 03:48:32 21° 68° (ENE) 03:51:59 437.345
YUBILEINY 12 Feb 03:46:40 03:54:41 39° 284° (WNW) 04:02:49 435.215
Cosmos 2504 12 Feb 03:48:06 03:56:13 50° 89° (E) 04:04:40 435.465 / 435.565
SO-50 12 Feb 03:50:38 03:55:30 82° 298° (WNW) 04:00:29 436.795
AIST 2 12 Feb 03:52:09 03:55:56 36° 247° (WSW) 03:59:42 435.215
STARS 12 Feb 04:01:07 04:03:39 15° 266° (W) 04:06:11 437.465
HORYU 2 12 Feb 04:07:45 04:12:13 78° 103° (ESE) 04:16:40 437.375
CUTE-I 12 Feb 04:52:39 04:55:52 16° 93° (E) 04:59:04 437.470
PHONESAT 2.4 12 Feb 04:53:39 04:56:47 46° 210° (SSW) 04:59:55 2401.200-2431.200
AO-7 12 Feb 05:02:50 05:09:52 32° 299° (WNW) 05:16:53 29.400- 29.500
Cubesat XI-IV 12 Feb 05:06:23 05:10:33 22° 95° (E) 05:14:40 437.490
M-CUBED/EXP-1 PRIME 12 Feb 05:09:24 05:11:13 14° 295° (WNW) 05:13:06 437.505
AUBIESAT-1 12 Feb 05:16:55 05:18:48 14° 295° (WNW) 05:20:44 437.475
CUBESAT XI-V 12 Feb 05:21:25 05:25:39 34° 263° (W) 05:29:55 437.345
STRAND 1 12 Feb 05:23:58 05:28:21 30° 69° (ENE) 05:32:46 437.568
SO-50 12 Feb 05:35:24 05:36:46 11° 317° (NW) 05:38:07 436.795
Cosmos 2504 12 Feb 05:42:21 05:49:47 32° 287° (WNW) 05:57:32 435.465 / 435.565
PRISM 12 Feb 05:51:48 05:53:57 14° 67° (ENE) 05:56:06 437.425
LilacSat-2 12 Feb 05:57:40 06:01:28 73° 103° (ESE) 06:05:14 437.200
BRITE-PL 12 Feb 06:22:44 06:27:20 73° 100° (E) 06:31:35 437.365/2234.400
O/OREOS (USA 219) 12 Feb 06:27:07 06:31:16 39° 105° (ESE) 06:35:28 437.305
CUTE-I 12 Feb 06:30:56 06:36:10 53° 287° (WNW) 06:41:23 437.470
HO-68 12 Feb 06:37:02 06:41:07 16° 92° (E) 06:45:09 435.675
DOVE 4 12 Feb 06:44:21 06:47:51 25° 96° (E) 06:51:17 437.250
Cubesat XI-IV 12 Feb 06:45:42 06:50:40 39° 289° (WNW) 06:55:37 437.490
CUTE 1.7 + AOD 2 12 Feb 06:53:23 06:55:11 12° 92° (E) 06:57:01 437.475
STRAND 1 12 Feb 07:03:11 07:07:26 27° 264° (W) 07:11:45 437.568
JUGNU 12 Feb 07:04:11 07:07:49 17° 172° (S) 07:11:27 437.505
GOMX 1 12 Feb 07:15:35 07:19:49 57° 285° (WNW) 07:23:53 467.674
GONETS M04 12 Feb 07:16:27 07:23:45 32° 85° (E) 07:31:04
CINEMA 3 12 Feb 07:20:05 07:23:16 21° 96° (E) 07:26:28 145.822/145.860
PRISM 12 Feb 07:24:59 07:28:53 40° 261° (W) 07:32:50 437.425
CANX-2 12 Feb 07:36:53 07:41:04 49° 100° (E) 07:45:13 2200.000
O/OREOS (USA 219) 12 Feb 08:07:59 08:10:49 16° 300° (WNW) 08:13:42 437.305
COMPASS 1 12 Feb 08:09:48 08:13:59 58° 101° (E) 08:18:08 437.405
ANTELSAT 12 Feb 08:14:56 08:16:30 12° 66° (ENE) 08:18:03 437.575/2403.000
TIGRISAT 12 Feb 08:20:25 08:22:25 13° 67° (ENE) 08:24:25 435.000
HO-68 12 Feb 08:22:12 08:29:25 78° 287° (WNW) 08:36:35 435.675
DOVE 4 12 Feb 08:22:22 08:25:24 20° 291° (WNW) 08:28:24 437.250
CUTE 1.7 + AOD 2 12 Feb 08:27:08 08:31:13 44° 286° (WNW) 08:35:18 437.475
SEEDS 12 Feb 08:28:44 08:32:56 58° 285° (WNW) 08:37:06 437.485
Oscar 11 12 Feb 08:29:26 08:33:16 30° 97° (E) 08:37:05 145.826/435.025
AAUSAT CUBESAT 2 12 Feb 08:35:55 08:40:07 83° 285° (WNW) 08:44:19 437.432
UWE-3 12 Feb 08:40:31 08:44:36 46° 99° (E) 08:48:46 435.000/436.395/437.385
Cosmos 2499 12 Feb 08:41:15 08:49:33 52° 90° (E) 08:58:04 435.465 / 435.565
CUBEBUG 2 12 Feb 08:45:16 08:49:29 77° 102° (ESE) 08:53:49 437.445
SRMSAT 12 Feb 08:45:29 08:48:47 15° 170° (S) 08:52:05 437.500
AO-85 12 Feb 08:51:37 08:56:48 62° 115° (ESE) 09:02:14 145.980
JUGNU 12 Feb 08:52:07 08:56:08 19° 182° (S) 09:00:08 437.505
PCSat 12 Feb 08:56:16 09:01:03 33° 108° (ESE) 09:05:51 145.827
CINEMA 3 12 Feb 08:56:58 09:00:20 24° 289° (WNW) 09:03:46 145.822/145.860
RS-15 12 Feb 09:03:39 09:12:11 27° 102° (ESE) 09:20:57 29.354- 29.394
UNISAT 6 12 Feb 09:03:40 09:07:47 45° 74° (ENE) 09:11:52 437.425
GONETS M04 12 Feb 09:11:53 09:20:09 48° 282° (WNW) 09:28:30
CANX-2 12 Feb 09:14:47 09:16:27 12° 293° (WNW) 09:18:07 2200.000
POPSAT HIP 1 12 Feb 09:16:38 09:18:42 13° 67° (ENE) 09:20:46 437.405
NANOSAT C BR1 12 Feb 09:19:26 09:21:41 14° 67° (ENE) 09:23:54 145.865
DUCHIFAT 1 12 Feb 09:19:48 09:21:53 14° 67° (ENE) 09:23:58 145.980
HUMSAT D 12 Feb 09:24:42 09:28:18 27° 97° (E) 09:31:55 437.325/437.525
QB50P1 12 Feb 09:28:01 09:30:59 19° 69° (ENE) 09:33:56 145.935-145.965
ZACube-1 12 Feb 09:28:28 09:32:41 67° 284° (WNW) 09:36:59 437.345
DELFI C3 12 Feb 09:28:53 09:32:57 85° 102° (ESE) 09:36:59 145.870
FUNcube-1 12 Feb 09:36:09 09:40:19 56° 284° (WNW) 09:44:33 145.935
AIST 1 12 Feb 09:47:50 09:52:13 76° 95° (E) 09:56:38
ANTELSAT 12 Feb 09:48:34 09:52:46 49° 260° (W) 09:56:55 437.575/2403.000
COMPASS 1 12 Feb 09:48:39 09:49:01 10° 294° (WNW) 09:49:23 437.405
TIGRISAT 12 Feb 09:54:35 09:58:43 44° 260° (W) 10:02:48 435.000
Oscar 11 12 Feb 10:06:02 10:09:10 20° 291° (WNW) 10:12:18 145.826/435.025
UKube-1 12 Feb 10:06:24 10:07:54 12° 93° (E) 10:09:24 .
AISAT 12 Feb 10:07:40 10:10:11 15° 94° (E) 10:12:41 437.250
BUGSAT 1 12 Feb 10:08:18 10:11:46 26° 71° (ENE) 10:15:13 437.445
HO-68 12 Feb 10:13:08 10:15:57 13° 304° (NW) 10:18:45 435.675
UWE-3 12 Feb 10:18:49 10:20:41 13° 293° (WNW) 10:22:33 435.000/436.395/437.385
CUBEBUG 1 12 Feb 10:19:16 10:21:59 16° 94° (E) 10:24:40 437.445
POLYITAN 1 12 Feb 10:20:16 10:24:31 83° 74° (ENE) 10:28:44 437.675
QB50P2 12 Feb 10:20:46 10:25:01 87° 75° (ENE) 10:29:15 145.880/145.840
DX 1 12 Feb 10:21:37 10:25:01 22° 96° (E) 10:28:23 434.975-435.025
SRMSAT 12 Feb 10:33:12 10:37:15 19° 180° (S) 10:41:17 437.500
AO-85 12 Feb 10:33:58 10:37:47 19° 312° (NW) 10:41:41 145.980
Cosmos 2499 12 Feb 10:35:25 10:42:55 31° 287° (WNW) 10:50:35 435.465 / 435.565
ESTCUBE 1 12 Feb 10:38:59 10:43:15 40° 99° (E) 10:47:30 437.505/2401.250
PCSat 12 Feb 10:39:42 10:44:23 29° 304° (NW) 10:49:06 145.827
JUGNU 12 Feb 10:41:36 10:44:25 14° 192° (SSW) 10:47:14 437.505
UNISAT 6 12 Feb 10:43:00 10:44:41 12° 267° (W) 10:46:23 437.425
50 SAT 12 Feb 10:43:43 10:47:26 50° 100° (E) 10:51:08 437.505
POPSAT HIP 1 12 Feb 10:50:04 10:54:06 42° 261° (W) 10:58:08 437.405
NANOSAT C BR1 12 Feb 10:53:04 10:57:03 40° 261° (W) 11:01:02 145.865
DUCHIFAT 1 12 Feb 10:53:13 10:57:13 42° 261° (W) 11:01:13 145.980
HUMSAT D 12 Feb 11:00:41 11:03:45 20° 290° (WNW) 11:06:50 437.325/437.525
QB50P1 12 Feb 11:02:49 11:06:31 30° 262° (W) 11:10:15 145.935-145.965
RS-15 12 Feb 11:12:19 11:23:21 72° 301° (WNW) 11:35:03 29.354- 29.394
Oscar 19 12 Feb 11:17:41 11:21:10 18° 66° (ENE) 11:24:38 437.125/150
VELOX 1 12 Feb 11:25:17 11:29:40 67° 284° (WNW) 11:34:00 145.980
UKube-1 12 Feb 11:40:01 11:44:11 48° 286° (WNW) 11:48:19 .
DANDE 12 Feb 11:40:14 11:45:09 23° 67° (ENE) 11:49:08 436.750
AISAT 12 Feb 11:42:43 11:46:48 39° 287° (WNW) 11:50:52 437.250
TISAT 1 12 Feb 11:43:51 11:46:39 17° 95° (E) 11:49:27 437.305
BUGSAT 1 12 Feb 11:43:53 11:47:05 21° 264° (W) 11:50:15 437.445
SPROUT 12 Feb 11:44:24 11:48:36 56° 101° (E) 11:52:46 437.525
CUBEBUG 1 12 Feb 11:54:24 11:58:21 35° 288° (WNW) 12:02:17 437.445
DX 1 12 Feb 11:57:32 12:01:08 26° 290° (WNW) 12:04:42 434.975-435.025
YUBILEINY 12 Feb 12:06:21 12:11:07 15° 66° (ENE) 12:15:52 435.215
Gurwin Techsat 1B 12 Feb 12:10:32 12:14:33 22° 67° (ENE) 12:18:35 435.225
ESTCUBE 1 12 Feb 12:16:53 12:19:42 16° 293° (WNW) 12:22:31 437.505/2401.250
JAS-2 12 Feb 12:17:19 12:24:49 60° 73° (ENE) 12:31:41 435.910
SRMSAT 12 Feb 12:22:24 12:25:42 15° 190° (S) 12:29:01 437.500
CUSAT 1 12 Feb 12:25:33 12:30:41 65° 265° (W) 12:34:31 437.405
SO-50 12 Feb 12:25:58 12:30:20 34° 54° (NE) 12:34:34 436.795
ITAMSAT 1 12 Feb 12:32:41 12:36:09 18° 66° (ENE) 12:39:39 435.822/435.867
ISS 12 Feb 12:41:00 12:42:12 12° 126° (SE) 12:43:24 145.825
Oscar 19 12 Feb 12:55:07 13:00:05 46° 261° (W) 13:05:03 437.125/150
SWISSCUBE 12 Feb 13:03:20 13:07:25 27° 97° (E) 13:11:30 437.505
TISAT 1 12 Feb 13:18:42 13:22:20 30° 289° (WNW) 13:25:58 437.305
DANDE 12 Feb 13:22:39 13:28:23 37° 272° (W) 13:32:46 436.750
SPROUT 12 Feb 13:23:14 13:24:02 10° 295° (WNW) 13:24:51 437.525
RS-15 12 Feb 13:30:12 13:38:21 22° 328° (NNW) 13:46:51 29.354- 29.394
ITUPSAT 1 12 Feb 13:41:09 13:45:57 64° 101° (E) 13:50:43 437.325
BEESAT 12 Feb 13:47:41 13:52:30 78° 103° (ESE) 13:57:16 436.000
Cosmos 2504 12 Feb 13:48:27 13:52:13 13° 64° (ENE) 13:55:52 435.465 / 435.565
Gurwin Techsat 1B 12 Feb 13:49:16 13:54:12 39° 261° (W) 13:59:11 435.225
YUBILEINY 12 Feb 14:00:14 14:09:07 89° 85° (E) 14:17:55 435.215
Cosmos 2491 12 Feb 14:02:01 14:10:24 55° 90° (E) 14:18:48 435.465 / 435.565
JAS-2 12 Feb 14:04:05 14:09:57 24° 265° (W) 14:15:32 435.910
AO-7 12 Feb 14:04:19 14:12:20 53° 67° (ENE) 14:20:21 29.400- 29.500
SO-50 12 Feb 14:06:57 14:10:35 22° 250° (WSW) 14:14:07 436.795
ITAMSAT 1 12 Feb 14:10:15 14:15:13 46° 260° (W) 14:20:13 435.822/435.867
ISS 12 Feb 14:15:08 14:18:18 49° 320° (NW) 14:21:28 145.825
M-CUBED/EXP-1 PRIME 12 Feb 14:18:28 14:21:14 21° 68° (ENE) 14:23:53 437.505
AUBIESAT-1 12 Feb 14:25:38 14:28:22 21° 67° (ENE) 14:31:00 437.475
KKS-1 12 Feb 14:40:43 14:44:47 35° 98° (E) 14:48:49 437.445
SWISSCUBE 12 Feb 14:41:08 14:45:05 26° 291° (WNW) 14:49:01 437.505
MOZHAYETS 4 12 Feb 14:55:56 14:59:24 21° 95° (E) 15:02:51
BEESAT 3 12 Feb 14:58:17 15:01:23 22° 111° (ESE) 15:04:31 437.485
HORYU 2 12 Feb 15:02:21 15:06:32 45° 73° (ENE) 15:10:45 437.375
ITUPSAT 1 12 Feb 15:21:25 15:23:12 12° 296° (WNW) 15:24:58 437.325
BEESAT 2 12 Feb 15:27:25 15:30:56 30° 113° (ESE) 15:34:29 435.950
Cosmos 2504 12 Feb 15:38:28 15:47:01 83° 84° (E) 15:54:52 435.465 / 435.565
STARS 12 Feb 15:51:54 15:56:12 63° 286° (WNW) 16:00:31 437.465
RS-15 12 Feb 15:53:11 15:57:49 13° 6° (N) 16:02:31 29.354- 29.394
M-CUBED/EXP-1 PRIME 12 Feb 15:53:16 15:55:48 18° 258° (WSW) 15:58:14 437.505
AO-7 12 Feb 15:58:11 16:05:16 30° 262° (W) 16:12:24 29.400- 29.500
YUBILEINY 12 Feb 16:00:09 16:04:36 15° 282° (WNW) 16:09:02 435.215
AUBIESAT-1 12 Feb 16:00:21 16:02:52 18° 258° (WSW) 16:05:18 437.475
Cosmos 2491 12 Feb 16:00:26 16:07:34 28° 288° (WNW) 16:14:45 435.465 / 435.565
CUTE-I 12 Feb 16:11:06 16:14:49 20° 66° (ENE) 16:18:32 437.470
KKS-1 12 Feb 16:18:08 16:21:03 18° 292° (WNW) 16:23:58 437.445
Cubesat XI-IV 12 Feb 16:25:01 16:29:23 27° 68° (ENE) 16:33:47 437.490
MOZHAYETS 4 12 Feb 16:32:27 16:36:34 32° 289° (WNW) 16:40:40
BEESAT 3 12 Feb 16:35:41 16:39:00 25° 306° (NW) 16:42:20 437.485
LilacSat-2 12 Feb 16:37:01 16:39:56 21° 71° (ENE) 16:42:50 437.200
O/OREOS (USA 219) 12 Feb 16:40:18 16:44:41 43° 67° (ENE) 16:49:04 437.305
HORYU 2 12 Feb 16:41:14 16:43:17 13° 267° (W) 16:45:21 437.375
GOMX 1 12 Feb 16:45:45 16:46:40 10° 64° (ENE) 16:47:34 467.674
BEESAT 2 12 Feb 17:05:53 17:08:51 20° 308° (NW) 17:11:50 435.950
CUBESAT XI-V 12 Feb 17:20:59 17:25:42 79° 101° (E) 17:30:22 437.345
AO-85 12 Feb 17:28:06 17:32:06 23° 49° (NE) 17:35:49 145.980
BRITE-PL 12 Feb 17:28:20 17:33:56 61° 75° (ENE) 17:39:23 437.365/2234.400
GONETS M04 12 Feb 17:33:33 17:36:19 12° 63° (ENE) 17:39:04
Cosmos 2504 12 Feb 17:34:39 17:39:05 16° 282° (WNW) 17:43:22 435.465 / 435.565
STRAND 1 12 Feb 17:39:29 17:41:51 13° 92° (E) 17:44:12 437.568
AIST 2 12 Feb 17:45:48 17:49:57 76° 300° (WNW) 17:54:08 435.215
DOVE 4 12 Feb 17:46:12 17:50:02 22° 70° (ENE) 17:53:44 437.250
PCSat 12 Feb 17:48:39 17:51:34 14° 49° (NE) 17:54:28 145.827
CUTE-I 12 Feb 17:49:23 17:54:28 45° 261° (W) 17:59:35 437.470
Cubesat XI-IV 12 Feb 18:04:33 18:09:17 33° 263° (W) 18:14:03 437.490
RS-15 12 Feb 18:06:13 18:16:25 30° 41° (NE) 18:26:40 29.354- 29.394
LilacSat-2 12 Feb 18:11:16 18:14:08 20° 264° (W) 18:17:01 437.200
GOMX 1 12 Feb 18:18:38 18:24:04 85° 256° (WSW) 18:29:16 467.674
CINEMA 3 12 Feb 18:19:19 18:21:51 15° 68° (ENE) 18:24:20 145.822/145.860
O/OREOS (USA 219) 12 Feb 18:21:10 18:23:40 14° 261° (W) 18:26:08 437.305
CANX-2 12 Feb 18:26:50 18:30:07 22° 70° (ENE) 18:33:25 2200.000
Cosmos 2499 12 Feb 18:40:40 18:44:04 13° 63° (ENE) 18:47:23 435.465 / 435.565
HO-68 12 Feb 18:46:29 18:53:26 56° 70° (ENE) 19:00:25 435.675
COMPASS 1 12 Feb 18:57:43 19:01:03 24° 71° (ENE) 19:04:25 437.405
AO-85 12 Feb 19:08:09 19:12:46 39° 248° (WSW) 19:16:59 145.980
BRITE-PL 12 Feb 19:09:19 19:12:38 16° 268° (W) 19:15:55 437.365/2234.400
PRISM 12 Feb 19:10:12 19:14:00 33° 98° (E) 19:17:45 437.425
CUTE 1.7 + AOD 2 12 Feb 19:15:51 19:20:02 79° 77° (ENE) 19:24:16 437.475
STRAND 1 12 Feb 19:16:16 19:21:21 60° 286° (WNW) 19:26:24 437.568
SEEDS 12 Feb 19:16:43 19:20:49 58° 75° (ENE) 19:24:56 437.485
Oscar 11 12 Feb 19:21:56 19:24:29 16° 68° (ENE) 19:27:03 145.826/435.025
AAUSAT CUBESAT 2 12 Feb 19:22:45 19:26:35 39° 73° (ENE) 19:30:28 437.432
DOVE 4 12 Feb 19:22:53 19:27:31 35° 262° (W) 19:31:57 437.250
GONETS M04 12 Feb 19:25:50 19:34:40 74° 82° (E) 19:43:29
PCSat 12 Feb 19:30:07 19:35:33 77° 246° (WSW) 19:40:57 145.827
UWE-3 12 Feb 19:34:46 19:38:10 24° 71° (ENE) 19:41:31 435.000/436.395/437.385
CUBEBUG 2 12 Feb 19:40:04 19:44:06 40° 74° (ENE) 19:48:02 437.445
CINEMA 3 12 Feb 19:54:15 19:58:40 43° 261° (W) 20:02:54 145.822/145.860
AIST 1 12 Feb 20:00:27 20:02:29 13° 73° (ENE) 20:04:30
CANX-2 12 Feb 20:02:26 20:05:51 24° 264° (W) 20:09:17 2200.000
DELFI C3 12 Feb 20:12:00 20:15:26 29° 72° (ENE) 20:18:54 145.870
HUMSAT D 12 Feb 20:14:39 20:16:18 12° 67° (ENE) 20:17:58 437.325/437.525
RS-15 12 Feb 20:18:09 20:30:26 85° 244° (WSW) 20:42:46 29.354- 29.394
ZACube-1 12 Feb 20:20:44 20:24:51 59° 76° (ENE) 20:28:57 437.345
FUNcube-1 12 Feb 20:28:03 20:32:13 69° 76° (ENE) 20:36:20 145.935
Cosmos 2499 12 Feb 20:30:20 20:38:36 84° 84° (E) 20:46:10 435.465 / 435.565
COMPASS 1 12 Feb 20:33:20 20:36:32 21° 265° (W) 20:39:46 437.405
HO-68 12 Feb 20:35:55 20:41:25 24° 265° (W) 20:46:58 435.675
ISS 12 Feb 20:45:40 20:48:38 33° 37° (NE) 20:51:36 145.825
PRISM 12 Feb 20:46:25 20:49:01 16° 292° (WNW) 20:51:36 437.425
Oscar 11 12 Feb 20:56:17 21:00:16 37° 262° (W) 21:04:17 145.826/435.025
AAUSAT CUBESAT 2 12 Feb 21:00:17 21:02:14 13° 267° (W) 21:04:13 437.432
UNISAT 6 12 Feb 21:00:28 21:02:21 12° 93° (E) 21:04:15 437.425
UWE-3 12 Feb 21:11:13 21:14:33 22° 264° (W) 21:17:51 435.000/436.395/437.385
DX 1 12 Feb 21:15:05 21:17:12 13° 66° (ENE) 21:19:21 434.975-435.025
CUBEBUG 2 12 Feb 21:18:42 21:20:50 14° 266° (W) 21:22:59 437.445
50 SAT 12 Feb 21:21:58 21:24:04 15° 69° (ENE) 21:26:10 437.505
GONETS M04 12 Feb 21:24:43 21:30:28 20° 279° (W) 21:36:15
PHONESAT 2.4 12 Feb 21:30:19 21:32:22 16° 143° (SE) 21:34:26 2401.200-2431.200
ESTCUBE 1 12 Feb 21:35:27 21:39:07 25° 70° (ENE) 21:42:48 437.505/2401.250
AIST 1 12 Feb 21:36:13 21:40:16 40° 268° (W) 21:44:17
ANTELSAT 12 Feb 21:43:26 21:47:36 41° 99° (E) 21:51:50 437.575/2403.000
HUMSAT D 12 Feb 21:47:40 21:51:33 42° 261° (W) 21:55:26 437.325/437.525
DELFI C3 12 Feb 21:47:51 21:50:22 16° 266° (W) 21:52:54 145.870
TIGRISAT 12 Feb 21:49:08 21:53:20 45° 99° (E) 21:57:37 435.000
POLYITAN 1 12 Feb 22:09:55 22:12:43 17° 95° (E) 22:15:30 437.675
QB50P2 12 Feb 22:10:19 22:13:13 18° 95° (E) 22:16:07 145.880/145.840
VELOX 1 12 Feb 22:18:45 22:23:11 69° 75° (ENE) 22:27:38 145.980
ISS 12 Feb 22:22:37 22:24:53 18° 231° (SW) 22:27:08 145.825
Cosmos 2499 12 Feb 22:26:26 22:30:23 15° 282° (WNW) 22:34:12 435.465 / 435.565
UKube-1 12 Feb 22:30:37 22:34:57 87° 72° (ENE) 22:39:19 .
RS-15 12 Feb 22:33:47 22:41:09 19° 261° (W) 22:48:35 29.354- 29.394
SPROUT 12 Feb 22:34:59 22:38:37 27° 71° (ENE) 22:42:14 437.525
UNISAT 6 12 Feb 22:35:03 22:39:15 47° 286° (WNW) 22:43:32 437.425
AISAT 12 Feb 22:36:01 22:40:29 71° 259° (WSW) 22:44:57 437.250
POPSAT HIP 1 12 Feb 22:38:22 22:42:16 37° 99° (E) 22:46:09 437.405
DUCHIFAT 1 12 Feb 22:40:53 22:44:46 36° 99° (E) 22:48:37 145.980
NANOSAT C BR1 12 Feb 22:40:55 22:44:52 39° 99° (E) 22:48:46 145.865
CUBEBUG 1 12 Feb 22:46:06 22:50:30 69° 258° (WSW) 22:54:57 437.445
DX 1 12 Feb 22:48:45 22:52:57 46° 260° (W) 22:57:12 434.975-435.025
QB50P1 12 Feb 22:50:31 22:54:38 54° 100° (E) 22:58:44 145.935-145.965
50 SAT 12 Feb 22:54:36 22:57:49 28° 263° (W) 23:01:03 437.505
